Погода в Тухольке

Украина / Львовская область     48°52′54″N   23°17′24″E
темп.,
°C
ветер,
м/с
пор.,
м/с
влажн.,
%
обл.,
%
осадки,
мм/ч
давл.,
гПа
погр.,
м
7 марта, вс
вс723:00−8ююз238421 0.0 103159
02:00−8ююз268511 0.0 1030144
05:00−7ююз312850 0.0 1028406
08:00−6юз614770 0.0 1026738
11:00−2юз713650 0.0 1024873
14:00−1юз8126318 0.0 1021879
17:00−2юз713670 0.0 1019836
20:00−4юз513764 0.0 1019584
8 марта, пн
пн823:00−4юз413800 0.0 1019488
02:00−6юз388929 0.0 1018239
05:00−7юз129546 0.0 101627
08:00−6ююз249133 0.0 1017177
11:00−1з248098 0.3 1017597
14:00−2ссз478099 1.9 1018806
17:00−3ссз366838 0.1 10181023
20:00−7с129123 0.1 102129
9 марта, вт
вт923:00−7ссз019475 0.0 102222
02:00−7сз119678 0.1 102321
05:00−9сз009763 0.0 102221
08:00−7ююв009066 0.0 102338
11:00−2всв226143 0.0 1022918
14:00−1св225660 0.0 10211182
17:00−3св3371100 0.0 1020603
20:00−5всв1186100 0.0 102245
10 марта, ср
ср1023:00−5всв1191100 0.0 102127
02:00−6всв1192100 0.0 102124
05:00−6ссв1192100 0.0 102021
08:00−6ссв1189100 0.0 1021166
11:00−3св237899 0.0 1021640
14:00−2св4573100 0.1 1021914
17:00−3св467892 0.2 1021769
20:00−5св379080 0.2 1023361
11 марта, чт
чт1123:00−6всв11950 0.0 102528
02:00−7в01940 0.0 102521
05:00−7ю11920 0.0 102421
08:00−6ю24840 0.0 1024193
11:00−1ююз595963 0.0 1022771
14:00−1ююз8136481 0.0 1020939
17:00−2ююз81579100 0.0 1018913
20:00−2ююз91786100 0.2 1018881